TimeMDT,TemperatureF,Dew PointF,Humidity,Sea Level PressureIn,VisibilityMPH,Wind Direction,Wind SpeedMPH,Gust SpeedMPH,PrecipitationIn,Events,Conditions,WindDirDegrees,DateUTC
12:52 AM,39.9,30.9,70,30.09,10.0,East,3.5,-,N/A,,Clear,90,2012-10-02 06:52:00
1:52 AM,35.1,28.0,76,30.11,10.0,South,4.6,-,N/A,,Clear,190,2012-10-02 07:52:00
2:52 AM,32.0,27.0,82,30.11,10.0,Calm,Calm,-,N/A,,Clear,0,2012-10-02 08:52:00
3:52 AM,30.0,26.1,85,30.12,10.0,South,4.6,-,N/A,,Clear,190,2012-10-02 09:52:00
4:52 AM,30.9,26.1,82,30.28,10.0,Calm,Calm,-,N/A,,Clear,0,2012-10-02 10:52:00
5:52 AM,27.0,23.0,85,30.28,10.0,Calm,Calm,-,N/A,,Clear,0,2012-10-02 11:52:00
6:52 AM,26.6,23.0,86,30.28,10.0,South,3.5,-,N/A,,Clear,180,2012-10-02 12:52:00
7:52 AM,33.1,27.0,78,30.19,10.0,Calm,Calm,-,N/A,,Clear,0,2012-10-02 13:52:00
8:52 AM,44.1,30.0,58,30.15,10.0,West,3.5,-,N/A,,Clear,270,2012-10-02 14:52:00
9:52 AM,51.1,32.0,48,30.13,10.0,Calm,Calm,-,N/A,,Clear,0,2012-10-02 15:52:00
10:52 AM,-9999,-9999,N/A,30.27,-9999.0,North,-9999.0,-,N/A,,Unknown,0,2012-10-02 16:52:00
11:52 AM,61.0,30.0,31,30.08,10.0,Calm,Calm,-,N/A,,Unknown,0,2012-10-02 17:52:00
12:52 PM,66.9,27.0,22,30.01,10.0,North,6.9,-,N/A,,Clear,360,2012-10-02 18:52:00
1:52 PM,69.1,26.1,20,29.99,10.0,ENE,5.8,-,N/A,,Clear,60,2012-10-02 19:52:00
2:52 PM,72.0,25.0,17,29.96,10.0,NNE,11.5,20.7,N/A,,Clear,20,2012-10-02 20:52:00
3:52 PM,73.0,25.0,17,29.94,10.0,NE,5.8,-,N/A,,Clear,40,2012-10-02 21:52:00
4:52 PM,73.0,21.9,15,29.93,10.0,NE,4.6,-,N/A,,Clear,40,2012-10-02 22:52:00
5:52 PM,72.0,21.9,15,29.94,10.0,North,3.5,-,N/A,,Clear,360,2012-10-02 23:52:00
6:52 PM,60.1,24.1,25,30.00,10.0,SSW,6.9,-,N/A,,Clear,210,2012-10-03 00:52:00
7:52 PM,51.8,26.6,38,30.12,10.0,SW,5.8,-,N/A,,Clear,220,2012-10-03 01:52:00
8:52 PM,48.0,27.0,44,30.00,10.0,West,10.4,-,N/A,,Clear,260,2012-10-03 02:52:00
9:52 PM,46.0,27.0,47,29.99,10.0,Calm,Calm,-,N/A,,Clear,0,2012-10-03 03:52:00
10:52 PM,39.9,26.1,58,30.16,10.0,SSE,3.5,-,N/A,,Clear,160,2012-10-03 04:52:00
11:52 PM,36.0,24.1,62,30.00,10.0,ESE,4.6,-,N/A,,Clear,110,2012-10-03 05:52:00